Mackinac Island, MI

7:56 PM EST on December 12, 2017 (GMT -0500)
Mackinac Island

Weather History for KMCD - February, 2014

Change the Weather History Date:

Saturday, February 8, 2014

  Actual Average Record
Temperature  
Mean Temperature 8 °F -  
Max Temperature 14 °F 25 °F 44 °F (1991)
Min Temperature 2 °F 13 °F -5 °F (1974)
Degree Days  
Heating Degree Days 57    
Moisture  
Dew Point 2 °F    
Average Humidity 77    
Maximum Humidity 92    
Minimum Humidity 64    
Precipitation  
Precipitation 0.00 in - - ()
Sea Level Pressure  
Sea Level Pressure 30.12 in    
Wind  
Wind Speed 8 mph (WSW)    
Max Wind Speed 13 mph    
Max Gust Speed 18 mph    
Visibility 10 miles    
Events Snow    
Averages and records for this station are not official NWS values.
T = Trace of Precipitation, MM = Missing Value Source: NWS Daily Summary

Daily Weather History Graph

Daily Weather History Graph

Search for Another Location

Airport or City:

Trip Planner

Search our weather history database for the weather conditions in past years. The results will help you decide how hot, cold, wet, or windy it might be!

Date:

Astronomy

Feb. 08, 2014 Rise Set
Actual Time 7:51 AM EST 5:54 PM EST
Civil Twilight 7:20 AM EST 6:26 PM EST
Nautical Twilight 6:44 AM EST 7:01 PM EST
Astronomical Twilight 6:10 AM EST 7:35 PM EST
Moon 12:43 PM EST (2/8) 3:07 AM EST (2/8)
Length of Visible Light 11h 05m
Length of Day
10h 03m
Waxing Gibbous, 68% of the Moon is Illuminated
Feb 8
Waxing Gibbous
Feb 14
Full
Feb 22
Last Quarter
Mar 1
New
Mar 8
First Quarter

Hourly Weather History & Observations

Time (EST) Temp. Windchill Dew Point Humidity Pressure Visibility Wind Dir Wind Speed Gust Speed Precip Events Conditions
12:14 AM 10.0 °F -4.5 °F 3.9 °F 76% 30.07 in 10.0 mi West 11.5 mph - N/A   Clear
12:34 AM 9.7 °F -5.0 °F 3.6 °F 76% 30.07 in 10.0 mi West 11.5 mph 17.3 mph N/A   Clear
12:54 AM 9.3 °F -4.6 °F 2.5 °F 74% 30.08 in 10.0 mi WSW 10.4 mph 18.4 mph N/A   Clear
1:15 AM 8.1 °F -6.2 °F 1.4 °F 74% 30.08 in 10.0 mi WSW 10.4 mph - N/A   Clear
1:34 AM 6.6 °F -5.0 °F 1.2 °F 79% 30.09 in 10.0 mi WSW 6.9 mph - N/A   Scattered Clouds
1:54 AM 6.6 °F -7.1 °F 0.9 °F 77% 30.09 in 10.0 mi SW 9.2 mph - N/A   Clear
2:15 AM 7.7 °F -6.6 °F 1.4 °F 75% 30.10 in 10.0 mi SW 10.4 mph 16.1 mph N/A   Scattered Clouds
2:34 AM 7.2 °F -8.9 °F 0.3 °F 74% 30.10 in 10.0 mi WSW 12.7 mph 18.4 mph N/A   Scattered Clouds
2:54 AM 6.8 °F -7.8 °F 0.5 °F 75% 30.11 in 10.0 mi WSW 10.4 mph 16.1 mph N/A   Clear
3:14 AM 6.8 °F -7.8 °F -0.4 °F 72% 30.11 in 10.0 mi WSW 10.4 mph 17.3 mph N/A   Scattered Clouds
3:34 AM 6.8 °F -6.9 °F -1.7 °F 68% 30.11 in 10.0 mi WSW 9.2 mph - N/A   Scattered Clouds
3:55 AM 5.9 °F -7.0 °F -0.9 °F 73% 30.11 in 10.0 mi WSW 8.1 mph - N/A   Clear
4:14 AM 5.4 °F -7.6 °F -1.5 °F 73% 30.12 in 10.0 mi WSW 8.1 mph - N/A   Clear
4:34 AM 4.1 °F -11.1 °F -2.2 °F 75% 30.12 in 10.0 mi WSW 10.4 mph 16.1 mph N/A   Clear
4:54 AM 4.8 °F -10.2 °F -2.2 °F 73% 30.12 in 10.0 mi WSW 10.4 mph 17.3 mph N/A   Clear
5:14 AM 4.3 °F -9.0 °F -2.7 °F 73% 30.12 in 10.0 mi West 8.1 mph - N/A   Clear
5:35 AM 4.1 °F -9.2 °F -2.7 °F 73% 30.13 in 10.0 mi WSW 8.1 mph - N/A   Clear
5:54 AM 3.9 °F -9.4 °F -2.4 °F 75% 30.13 in 10.0 mi WSW 8.1 mph - N/A   Clear
6:14 AM 3.6 °F -8.7 °F -2.6 °F 76% 30.13 in 10.0 mi WSW 6.9 mph - N/A   Clear
6:35 AM 3.9 °F -5.3 °F -3.5 °F 71% 30.13 in 10.0 mi WSW 4.6 mph - N/A   Clear
6:54 AM 3.7 °F -11.6 °F -3.1 °F 73% 30.14 in 10.0 mi WSW 10.4 mph - N/A   Clear
7:14 AM 3.2 °F -9.1 °F -3.3 °F 74% 30.14 in 10.0 mi WSW 6.9 mph - N/A   Clear
7:35 AM 3.2 °F -12.2 °F -3.3 °F 74% 30.15 in 10.0 mi WSW 10.4 mph - N/A   Clear
7:54 AM 2.8 °F -12.7 °F -4.0 °F 73% 30.15 in 10.0 mi WSW 10.4 mph - N/A   Clear
8:14 AM 2.8 °F -9.5 °F -3.6 °F 74% 30.15 in 10.0 mi WSW 6.9 mph - N/A   Clear
8:34 AM 3.7 °F -8.4 °F -3.5 °F 72% 30.16 in 10.0 mi WSW 6.9 mph - N/A   Clear
8:54 AM 5.0 °F -8.1 °F -1.5 °F 75% 30.16 in 10.0 mi WSW 8.1 mph - N/A   Clear
9:14 AM 5.0 °F -6.9 °F -1.1 °F 76% 30.16 in 10.0 mi SW 6.9 mph - N/A   Clear
9:34 AM 4.8 °F -7.1 °F -2.0 °F 73% 30.15 in 10.0 mi WSW 6.9 mph - N/A   Clear
9:54 AM 6.3 °F -4.1 °F -1.3 °F 71% 30.16 in 10.0 mi WSW 5.8 mph - N/A   Clear
10:14 AM 7.3 °F -2.8 °F -0.4 °F 71% 30.16 in 10.0 mi WSW 5.8 mph - N/A   Clear
10:34 AM 8.4 °F -1.6 °F 0.1 °F 69% 30.16 in 10.0 mi West 5.8 mph - N/A   Clear
10:54 AM 9.3 °F -0.5 °F 0.1 °F 66% 30.16 in 10.0 mi West 5.8 mph - N/A   Clear
11:15 AM 8.8 °F 0.4 °F 0.5 °F 69% 30.16 in 10.0 mi WSW 4.6 mph - N/A   Clear
11:34 AM 9.0 °F -0.9 °F 0.7 °F 69% 30.16 in 10.0 mi WSW 5.8 mph - N/A   Clear
11:54 AM 10.2 °F -0.6 °F 0.3 °F 64% 30.16 in 10.0 mi WSW 6.9 mph - N/A   Clear
12:15 PM 10.4 °F 0.8 °F 0.5 °F 64% 30.15 in 10.0 mi WSW 5.8 mph - N/A   Clear
12:34 PM 11.8 °F 0.3 °F 1.9 °F 65% 30.15 in 10.0 mi WSW 8.1 mph - N/A   Clear
12:54 PM 13.1 °F -1.4 °F 4.3 °F 68% 30.14 in 10.0 mi West 12.7 mph 16.1 mph N/A   Clear
1:15 PM 13.6 °F 1.6 °F 5.4 °F 70% 30.13 in 10.0 mi West 9.2 mph - N/A   Clear
1:34 PM 13.6 °F 0.0 °F 5.9 °F 71% 30.13 in 10.0 mi WSW 11.5 mph 18.4 mph N/A   Clear
1:54 PM 13.8 °F 0.2 °F 5.9 °F 71% 30.12 in 10.0 mi West 11.5 mph 16.1 mph N/A   Clear
2:15 PM 14.0 °F 2.0 °F 6.4 °F 72% 30.12 in 10.0 mi WSW 9.2 mph - N/A   Clear
2:34 PM 14.5 °F 1.1 °F 6.6 °F 71% 30.11 in 10.0 mi West 11.5 mph 18.4 mph N/A   Clear
2:54 PM 14.5 °F 1.9 °F 6.8 °F 71% 30.11 in 10.0 mi West 10.4 mph - N/A   Clear
3:14 PM 14.5 °F 3.6 °F 6.8 °F 71% 30.11 in 10.0 mi West 8.1 mph 18.4 mph N/A   Clear
3:34 PM 14.7 °F 3.8 °F 6.8 °F 71% 30.10 in 10.0 mi WSW 8.1 mph - N/A   Clear
3:54 PM 14.5 °F 2.7 °F 6.8 °F 71% 30.11 in 10.0 mi West 9.2 mph 16.1 mph N/A   Clear
4:14 PM 14.4 °F 1.6 °F 6.8 °F 72% 30.11 in 10.0 mi WSW 10.4 mph - N/A   Clear
4:34 PM 13.6 °F 3.5 °F 6.8 °F 74% 30.11 in 10.0 mi WSW 6.9 mph 16.1 mph N/A Snow Light Snow
4:54 PM 12.6 °F 3.4 °F 6.8 °F 78% 30.11 in 10.0 mi WSW 5.8 mph - N/A   Mostly Cloudy
5:14 PM 12.6 °F 3.4 °F 7.0 °F 78% 30.11 in 10.0 mi WSW 5.8 mph - N/A Snow Light Snow
5:34 PM 12.6 °F 4.8 °F 7.0 °F 78% 30.11 in 10.0 mi SW 4.6 mph - N/A Snow Light Snow
5:55 PM 11.3 °F 1.9 °F 6.1 °F 80% 30.10 in 10.0 mi WSW 5.8 mph - N/A   Clear
6:14 PM 11.1 °F 3.1 °F 6.4 °F 81% 30.11 in 10.0 mi WSW 4.6 mph - N/A   Clear
6:34 PM 9.3 °F 2.8 °F 5.2 °F 83% 30.11 in 10.0 mi West 3.5 mph - N/A   Clear
6:55 PM 7.3 °F 0.5 °F 3.9 °F 86% 30.12 in 10.0 mi West 3.5 mph - N/A   Scattered Clouds
7:14 PM 7.3 °F 0.5 °F 4.5 °F 88% 30.11 in 10.0 mi West 3.5 mph - N/A   Mostly Cloudy
7:34 PM 6.3 °F -0.7 °F 3.4 °F 88% 30.11 in 10.0 mi West 3.5 mph - N/A   Mostly Cloudy
7:54 PM 6.3 °F -0.7 °F 3.2 °F 87% 30.11 in 10.0 mi SSW 3.5 mph - N/A   Mostly Cloudy
8:14 PM 5.7 °F -3.2 °F 2.7 °F 87% 30.11 in 10.0 mi SSW 4.6 mph - N/A   Mostly Cloudy
8:34 PM 5.9 °F -4.5 °F 3.2 °F 89% 30.11 in 10.0 mi SSW 5.8 mph - N/A   Mostly Cloudy
8:55 PM 5.5 °F -3.4 °F 2.7 °F 88% 30.10 in 10.0 mi SSW 4.6 mph - N/A   Scattered Clouds
9:14 PM 5.4 °F -1.7 °F 2.7 °F 89% 30.10 in 10.0 mi South 3.5 mph - N/A   Mostly Cloudy
9:34 PM 6.8 °F -2.0 °F 4.1 °F 89% 30.10 in 5.0 mi SSW 4.6 mph - N/A Snow Light Snow
9:54 PM 7.3 °F 0.5 °F 4.6 °F 89% 30.10 in 3.0 mi SSW 3.5 mph - N/A Snow Light Snow
10:14 PM 7.0 °F - 4.8 °F 91% 30.10 in 5.0 mi Calm Calm - N/A Snow Light Snow
10:35 PM 5.9 °F - 3.7 °F 91% 30.10 in 10.0 mi Calm Calm - N/A Snow Light Snow
10:54 PM 6.1 °F - 4.3 °F 92% 30.10 in 7.0 mi Calm Calm - N/A Snow Light Snow
11:14 PM 7.7 °F - 5.7 °F 92% 30.10 in 5.0 mi Calm Calm - N/A Snow Light Snow
11:35 PM 8.1 °F - 6.1 °F 92% 30.10 in 7.0 mi Calm Calm - N/A Snow Light Snow
11:54 PM 7.5 °F - 5.2 °F 90% 30.10 in 10.0 mi Calm Calm - N/A Snow Light Snow